Simultaneous Nadir Overpasses (SNOs) Predictions

Prediction of SNOs between TERRA and METOP-C Satellite Orbit:

Table of predicted SNOs for the next 14.0 days since TLE Epoch: 10/11/2025
Index Date (TERRA) Time (TERRA) Lat,Lon (TERRA) SZA (TERRA ) Date (METOP-C) Time (METOP-C) Lat,Lon (METOP-C) SZA (METOP-C ) Distance(km) Time Diff (sec)
1 10/11/2025 15:35:48 -78.13,-137.45 80.85 10/11/2025 15:35:27 -78.14,-137.45 80.87 0.27 21
2 10/11/2025 16:24:59 77.76, 31.83 99.55 10/11/2025 16:26:00 77.77, 31.74 99.58 2.40 61
3 10/14/2025 04:25:16 -78.36, 29.10 80.14 10/14/2025 04:24:31 -78.36, 29.06 80.19 1.09 45
4 10/14/2025 05:14:24 77.86,-160.97 100.40 10/14/2025 05:15:00 77.85,-160.88 100.45 2.46 36
5 10/16/2025 17:14:42 -78.51,-164.04 79.38 10/16/2025 17:13:33 -78.51,-164.06 79.44 0.30 69
6 10/16/2025 18:03:51 78.06, 5.75 101.12 10/16/2025 18:04:03 78.05, 5.85 101.15 2.73 12
7 10/19/2025 06:53:19 78.33, 172.13 101.76 10/19/2025 06:53:08 78.33, 172.07 101.73 1.63 11
8 10/19/2025 07:42:28 -77.90, -18.26 77.79 10/19/2025 07:43:37 -77.90, -18.27 77.73 0.30 69
9 10/21/2025 19:42:43 78.43, -20.77 102.54 10/21/2025 19:42:08 78.42, -20.68 102.53 2.26 35
10 10/21/2025 20:31:54 -78.10, 148.47 77.10 10/21/2025 20:32:40 -78.11, 148.40 77.08 1.86 46
11 10/24/2025 08:32:07 78.60, 146.01 103.24 10/24/2025 08:31:09 78.60, 146.07 103.20 1.55 58



Historial Predications of SNOs between TERRA and METOP-C
